This is the latest recevied weather packets stored in our database for station/object HG5CJW-10. If no packets are shown the sender has not sent any weather packets the latest 10 day(s).
| Time | Temp. | Humidity | Pressure | Rain* | Wind** | Luminosity | Snow |
|---|---|---|---|---|---|---|---|
| 1788437961 | 27.22° C | 32% | 1036.9 hPa | - | - | - | - |
| 1788437061 | 27.22° C | 31% | 1036.2 hPa | - | - | - | - |
| 1788435261 | 27.22° C | 33% | 1037.2 hPa | - | - | - | - |
| 1788434361 | 26.67° C | 36% | 1037.4 hPa | - | - | - | - |
| 1788432561 | 26.11° C | 40% | 1037.8 hPa | - | - | - | - |
| 1788431661 | 25.56° C | 42% | 1037.5 hPa | - | - | - | - |
| 1788430755 | 25.56° C | 42% | 1037.9 hPa | - | - | - | - |
| 1788429855 | 25° C | 42% | 1038.1 hPa | - | - | - | - |
| 1788428055 | 23.89° C | 47% | 1038.3 hPa | - | - | - | - |
| 1788427155 | 23.33° C | 48% | 1038.6 hPa | - | - | - | - |
| 1788426255 | 22.78° C | 50% | 1038.5 hPa | - | - | - | - |
| 1788425355 | 22.22° C | 55% | 1038.5 hPa | - | - | - | - |
| 1788424454 | 21.11° C | 58% | 1038.6 hPa | - | - | - | - |
| 1788423554 | 20.56° C | 64% | 1038.4 hPa | - | - | - | - |
| 1788422654 | 20° C | 72% | 1038.5 hPa | - | - | - | - |
| 1788421754 | 19.44° C | 70% | 1038.7 hPa | - | - | - | - |
| 1788420854 | 19.44° C | 69% | 1038.7 hPa | - | - | - | - |
| 1788419954 | 19.44° C | 69% | 1038.7 hPa | - | - | - | - |
| 1788419054 | 18.89° C | 71% | 1038.6 hPa | - | - | - | - |
| 1788417250 | 18.89° C | 71% | 1038.5 hPa | - | - | - | - |
| 1788415450 | 19.44° C | 61% | 1038.7 hPa | - | - | - | - |
| 1788414558 | 19.44° C | 58% | 1039.1 hPa | - | - | - | - |
| 1788413648 | 19.44° C | 57% | 1039.2 hPa | - | - | - | - |
| 1788411848 | 19.44° C | 57% | 1038.4 hPa | - | - | - | - |
| 1788410948 | 19.44° C | 56% | 1038.3 hPa | - | - | - | - |
* Rain since midnight (hover to see other rain measurements)
** Current wind speed in m/s (hover to see current wind gust speed)